Year,Month,Day,Hour,Minute,Value (Times are PST for insolation in W/m^2)
2017,10,03,00,00,0.00
2017,10,03,00,01,0.00
2017,10,03,00,02,0.00
2017,10,03,00,03,0.00
2017,10,03,00,04,0.00
2017,10,03,00,05,0.00
2017,10,03,00,06,0.00
2017,10,03,00,07,0.00
2017,10,03,00,08,0.00
2017,10,03,00,09,0.00
2017,10,03,00,10,0.00
2017,10,03,00,11,0.00
2017,10,03,00,12,0.00
2017,10,03,00,13,0.00
2017,10,03,00,14,0.00
2017,10,03,00,15,0.00
2017,10,03,00,16,0.00
2017,10,03,00,17,0.00
2017,10,03,00,18,0.00
2017,10,03,00,19,0.00
2017,10,03,00,20,0.00
2017,10,03,00,21,0.00
2017,10,03,00,22,0.00
2017,10,03,00,23,0.00
2017,10,03,00,24,0.00
2017,10,03,00,25,0.00
2017,10,03,00,26,0.00
2017,10,03,00,27,0.00
2017,10,03,00,28,0.00
2017,10,03,00,29,0.00
2017,10,03,00,30,0.00
2017,10,03,00,31,0.00
2017,10,03,00,32,0.00
2017,10,03,00,33,0.00
2017,10,03,00,34,0.00
2017,10,03,00,35,0.00
2017,10,03,00,36,0.00
2017,10,03,00,37,0.00
2017,10,03,00,38,0.00
2017,10,03,00,39,0.00
2017,10,03,00,40,0.00
2017,10,03,00,41,0.00
2017,10,03,00,42,0.00
2017,10,03,00,43,0.00
2017,10,03,00,44,0.00
2017,10,03,00,45,0.00
2017,10,03,00,46,0.00
2017,10,03,00,47,0.00
2017,10,03,00,48,0.00
2017,10,03,00,49,0.00
2017,10,03,00,50,0.00
2017,10,03,00,51,0.00
2017,10,03,00,52,0.00
2017,10,03,00,53,0.00
2017,10,03,00,54,0.00
2017,10,03,00,55,0.00
2017,10,03,00,56,0.00
2017,10,03,00,57,0.00
2017,10,03,00,58,0.00
2017,10,03,00,59,0.00
2017,10,03,01,00,0.00
2017,10,03,01,01,0.00
2017,10,03,01,02,0.00
2017,10,03,01,03,0.00
2017,10,03,01,04,0.00
2017,10,03,01,05,0.00
2017,10,03,01,06,0.00
2017,10,03,01,07,0.00
2017,10,03,01,08,0.00
2017,10,03,01,09,0.00
2017,10,03,01,10,0.00
2017,10,03,01,11,0.00
2017,10,03,01,12,0.00
2017,10,03,01,13,0.00
2017,10,03,01,14,0.00
2017,10,03,01,15,0.00
2017,10,03,01,16,0.00
2017,10,03,01,17,0.00
2017,10,03,01,18,0.00
2017,10,03,01,19,0.00
2017,10,03,01,20,0.00
2017,10,03,01,21,0.00
2017,10,03,01,22,0.00
2017,10,03,01,23,0.00
2017,10,03,01,24,0.00
2017,10,03,01,25,0.00
2017,10,03,01,26,0.00
2017,10,03,01,27,0.00
2017,10,03,01,28,0.00
2017,10,03,01,29,0.00
2017,10,03,01,30,0.00
2017,10,03,01,31,0.00
2017,10,03,01,32,0.00
2017,10,03,01,33,0.00
2017,10,03,01,34,0.00
2017,10,03,01,35,0.00
2017,10,03,01,36,0.00
2017,10,03,01,37,0.00
2017,10,03,01,38,0.00
2017,10,03,01,39,0.00
2017,10,03,01,40,0.00
2017,10,03,01,41,0.00
2017,10,03,01,42,0.00
2017,10,03,01,43,0.00
2017,10,03,01,44,0.00
2017,10,03,01,45,0.00
2017,10,03,01,46,0.00
2017,10,03,01,47,0.00
2017,10,03,01,48,0.00
2017,10,03,01,49,0.00
2017,10,03,01,50,0.00
2017,10,03,01,51,0.00
2017,10,03,01,52,0.00
2017,10,03,01,53,0.00
2017,10,03,01,54,0.00
2017,10,03,01,55,0.00
2017,10,03,01,56,0.00
2017,10,03,01,57,0.00
2017,10,03,01,58,0.00
2017,10,03,01,59,0.00
2017,10,03,02,00,0.00
2017,10,03,02,01,0.00
2017,10,03,02,02,0.00
2017,10,03,02,03,0.00
2017,10,03,02,04,0.00
2017,10,03,02,05,0.00
2017,10,03,02,06,0.00
2017,10,03,02,07,0.00
2017,10,03,02,08,0.00
2017,10,03,02,09,0.00
2017,10,03,02,10,0.00
2017,10,03,02,11,0.00
2017,10,03,02,12,0.00
2017,10,03,02,13,0.00
2017,10,03,02,14,0.00
2017,10,03,02,15,0.00
2017,10,03,02,16,0.00
2017,10,03,02,17,0.00
2017,10,03,02,18,0.00
2017,10,03,02,19,0.00
2017,10,03,02,20,0.00
2017,10,03,02,21,0.00
2017,10,03,02,22,0.00
2017,10,03,02,23,0.00
2017,10,03,02,24,0.00
2017,10,03,02,25,0.00
2017,10,03,02,26,0.00
2017,10,03,02,27,0.00
2017,10,03,02,28,0.00
2017,10,03,02,29,0.00
2017,10,03,02,30,0.00
2017,10,03,02,31,0.00
2017,10,03,02,32,0.00
2017,10,03,02,33,0.00
2017,10,03,02,34,0.00
2017,10,03,02,35,0.00
2017,10,03,02,36,0.00
2017,10,03,02,37,0.00
2017,10,03,02,38,0.00
2017,10,03,02,39,0.00
2017,10,03,02,40,0.00
2017,10,03,02,41,0.00
2017,10,03,02,42,0.00
2017,10,03,02,43,0.00
2017,10,03,02,44,0.00
2017,10,03,02,45,0.00
2017,10,03,02,46,0.00
2017,10,03,02,47,0.00
2017,10,03,02,48,0.00
2017,10,03,02,49,0.00
2017,10,03,02,50,0.00
2017,10,03,02,51,0.00
2017,10,03,02,52,0.00
2017,10,03,02,53,0.00
2017,10,03,02,54,0.00
2017,10,03,02,55,0.00
2017,10,03,02,56,0.00
2017,10,03,02,57,0.00
2017,10,03,02,58,0.00
2017,10,03,02,59,0.00
2017,10,03,03,00,0.00
2017,10,03,03,01,0.00
2017,10,03,03,02,0.00
2017,10,03,03,03,0.00
2017,10,03,03,04,0.00
2017,10,03,03,05,0.00
2017,10,03,03,06,0.00
2017,10,03,03,07,0.00
2017,10,03,03,08,0.00
2017,10,03,03,09,0.00
2017,10,03,03,10,0.00
2017,10,03,03,11,0.00
2017,10,03,03,12,0.00
2017,10,03,03,13,0.00
2017,10,03,03,14,0.00
2017,10,03,03,15,0.00
2017,10,03,03,16,0.00
2017,10,03,03,17,0.00
2017,10,03,03,18,0.00
2017,10,03,03,19,0.00
2017,10,03,03,20,0.00
2017,10,03,03,21,0.00
2017,10,03,03,22,0.00
2017,10,03,03,23,0.00
2017,10,03,03,24,0.00
2017,10,03,03,25,0.00
2017,10,03,03,26,0.00
2017,10,03,03,27,0.00
2017,10,03,03,28,0.00
2017,10,03,03,29,0.00
2017,10,03,03,30,0.00
2017,10,03,03,31,0.00
2017,10,03,03,32,0.00
2017,10,03,03,33,0.00
2017,10,03,03,34,0.00
2017,10,03,03,35,0.00
2017,10,03,03,36,0.00
2017,10,03,03,37,0.00
2017,10,03,03,38,0.00
2017,10,03,03,39,0.00
2017,10,03,03,40,0.00
2017,10,03,03,41,0.00
2017,10,03,03,42,0.00
2017,10,03,03,43,0.00
2017,10,03,03,44,0.00
2017,10,03,03,45,0.00
2017,10,03,03,46,0.00
2017,10,03,03,47,0.00
2017,10,03,03,48,0.00
2017,10,03,03,49,0.00
2017,10,03,03,50,0.00
2017,10,03,03,51,0.00
2017,10,03,03,52,0.00
2017,10,03,03,53,0.00
2017,10,03,03,54,0.00
2017,10,03,03,55,0.00
2017,10,03,03,56,0.00
2017,10,03,03,57,0.00
2017,10,03,03,58,0.00
2017,10,03,03,59,0.00
2017,10,03,04,00,0.00
2017,10,03,04,01,0.00
2017,10,03,04,02,0.00
2017,10,03,04,03,0.00
2017,10,03,04,04,0.00
2017,10,03,04,05,0.00
2017,10,03,04,06,0.00
2017,10,03,04,07,0.00
2017,10,03,04,08,0.00
2017,10,03,04,09,0.00
2017,10,03,04,10,0.00
2017,10,03,04,11,0.00
2017,10,03,04,12,0.00
2017,10,03,04,13,0.00
2017,10,03,04,14,0.00
2017,10,03,04,15,0.00
2017,10,03,04,16,0.00
2017,10,03,04,17,0.00
2017,10,03,04,18,0.00
2017,10,03,04,19,0.00
2017,10,03,04,20,0.00
2017,10,03,04,21,0.00
2017,10,03,04,22,0.00
2017,10,03,04,23,0.00
2017,10,03,04,24,0.00
2017,10,03,04,25,0.00
2017,10,03,04,26,0.00
2017,10,03,04,27,0.00
2017,10,03,04,28,0.00
2017,10,03,04,29,0.00
2017,10,03,04,30,0.00
2017,10,03,04,31,0.00
2017,10,03,04,32,0.00
2017,10,03,04,33,0.00
2017,10,03,04,34,0.00
2017,10,03,04,35,0.00
2017,10,03,04,36,0.00
2017,10,03,04,37,0.00
2017,10,03,04,38,0.00
2017,10,03,04,39,0.00
2017,10,03,04,40,0.00
2017,10,03,04,41,0.00
2017,10,03,04,42,0.00
2017,10,03,04,43,0.00
2017,10,03,04,44,0.00
2017,10,03,04,45,0.00
2017,10,03,04,46,0.00
2017,10,03,04,47,0.00
2017,10,03,04,48,0.00
2017,10,03,04,49,0.00
2017,10,03,04,50,0.00
2017,10,03,04,51,0.00
2017,10,03,04,52,0.00
2017,10,03,04,53,0.00
2017,10,03,04,54,0.00
2017,10,03,04,55,0.00
2017,10,03,04,56,0.00
2017,10,03,04,57,0.00
2017,10,03,04,58,0.00
2017,10,03,04,59,0.00
2017,10,03,05,00,0.00
2017,10,03,05,01,0.00
2017,10,03,05,02,0.00
2017,10,03,05,03,0.00
2017,10,03,05,04,0.00
2017,10,03,05,05,0.00
2017,10,03,05,06,0.00
2017,10,03,05,07,0.00
2017,10,03,05,08,0.00
2017,10,03,05,09,0.00
2017,10,03,05,10,0.00
2017,10,03,05,11,0.00
2017,10,03,05,12,0.00
2017,10,03,05,13,0.00
2017,10,03,05,14,0.00
2017,10,03,05,15,0.00
2017,10,03,05,16,0.00
2017,10,03,05,17,0.00
2017,10,03,05,18,0.00
2017,10,03,05,19,0.00
2017,10,03,05,20,0.00
2017,10,03,05,21,0.00
2017,10,03,05,22,0.00
2017,10,03,05,23,0.00
2017,10,03,05,24,0.00
2017,10,03,05,25,0.00
2017,10,03,05,26,0.00
2017,10,03,05,27,0.00
2017,10,03,05,28,0.00
2017,10,03,05,29,0.00
2017,10,03,05,30,0.00
2017,10,03,05,31,0.00
2017,10,03,05,32,0.00
2017,10,03,05,33,0.00
2017,10,03,05,34,0.00
2017,10,03,05,35,0.00
2017,10,03,05,36,0.00
2017,10,03,05,37,0.00
2017,10,03,05,38,0.00
2017,10,03,05,39,0.00
2017,10,03,05,40,0.00
2017,10,03,05,41,0.00
2017,10,03,05,42,0.00
2017,10,03,05,43,0.00
2017,10,03,05,44,0.00
2017,10,03,05,45,0.00
2017,10,03,05,46,0.00
2017,10,03,05,47,0.00
2017,10,03,05,48,0.00
2017,10,03,05,49,0.00
2017,10,03,05,50,0.00
2017,10,03,05,51,0.00
2017,10,03,05,52,0.00
2017,10,03,05,53,0.00
2017,10,03,05,54,0.00
2017,10,03,05,55,0.00
2017,10,03,05,56,0.00
2017,10,03,05,57,0.00
2017,10,03,05,58,0.00
2017,10,03,05,59,0.00
2017,10,03,06,00,0.00
2017,10,03,06,01,0.00
2017,10,03,06,02,0.00
2017,10,03,06,03,0.00
2017,10,03,06,04,0.00
2017,10,03,06,05,0.00
2017,10,03,06,06,0.00
2017,10,03,06,07,0.00
2017,10,03,06,08,0.00
2017,10,03,06,09,0.00
2017,10,03,06,10,0.00
2017,10,03,06,11,0.00
2017,10,03,06,12,0.00
2017,10,03,06,13,0.00
2017,10,03,06,14,0.00
2017,10,03,06,15,0.00
2017,10,03,06,16,0.00
2017,10,03,06,17,0.00
2017,10,03,06,18,0.00
2017,10,03,06,19,0.00
2017,10,03,06,20,0.00
2017,10,03,06,21,0.00
2017,10,03,06,22,0.00
2017,10,03,06,23,0.00
2017,10,03,06,24,0.00
2017,10,03,06,25,0.00
2017,10,03,06,26,0.00
2017,10,03,06,27,0.00
2017,10,03,06,28,0.00
2017,10,03,06,29,0.00
2017,10,03,06,30,0.00
2017,10,03,06,31,0.00
2017,10,03,06,32,0.00
2017,10,03,06,33,0.00
2017,10,03,06,34,0.00
2017,10,03,06,35,0.00
2017,10,03,06,36,0.00
2017,10,03,06,37,0.00
2017,10,03,06,38,0.00
2017,10,03,06,39,0.00
2017,10,03,06,40,0.00
2017,10,03,06,41,0.00
2017,10,03,06,42,0.00
2017,10,03,06,43,0.00
2017,10,03,06,44,0.00
2017,10,03,06,45,0.00
2017,10,03,06,46,0.00
2017,10,03,06,47,0.00
2017,10,03,06,48,0.00
2017,10,03,06,49,0.00
2017,10,03,06,50,0.00
2017,10,03,06,51,0.00
2017,10,03,06,52,0.00
2017,10,03,06,53,0.00
2017,10,03,06,54,0.00
2017,10,03,06,55,0.00
2017,10,03,06,56,0.00
2017,10,03,06,57,0.00
2017,10,03,06,58,0.00
2017,10,03,06,59,0.00
2017,10,03,07,00,0.00
2017,10,03,07,01,0.00
2017,10,03,07,02,0.00
2017,10,03,07,03,0.00
2017,10,03,07,04,0.00
2017,10,03,07,05,0.00
2017,10,03,07,06,0.00
2017,10,03,07,07,0.00
2017,10,03,07,08,0.00
2017,10,03,07,09,0.00
2017,10,03,07,10,0.00
2017,10,03,07,11,0.00
2017,10,03,07,12,0.00
2017,10,03,07,13,0.00
2017,10,03,07,14,0.00
2017,10,03,07,15,0.00
2017,10,03,07,16,0.00
2017,10,03,07,17,0.00
2017,10,03,07,18,0.00
2017,10,03,07,19,0.00
2017,10,03,07,20,0.00
2017,10,03,07,21,1.80
2017,10,03,07,22,5.00
2017,10,03,07,23,5.00
2017,10,03,07,24,5.00
2017,10,03,07,25,5.00
2017,10,03,07,26,5.00
2017,10,03,07,27,5.20
2017,10,03,07,28,7.00
2017,10,03,07,29,7.00
2017,10,03,07,30,7.00
2017,10,03,07,31,7.00
2017,10,03,07,32,7.00
2017,10,03,07,33,7.00
2017,10,03,07,34,7.00
2017,10,03,07,35,8.80
2017,10,03,07,36,9.00
2017,10,03,07,37,9.00
2017,10,03,07,38,9.00
2017,10,03,07,39,9.00
2017,10,03,07,40,10.10
2017,10,03,07,41,11.00
2017,10,03,07,42,11.00
2017,10,03,07,43,11.00
2017,10,03,07,44,11.00
2017,10,03,07,45,11.00
2017,10,03,07,46,11.30
2017,10,03,07,47,12.00
2017,10,03,07,48,12.00
2017,10,03,07,49,12.00
2017,10,03,07,50,12.00
2017,10,03,07,51,12.00
2017,10,03,07,52,12.00
2017,10,03,07,53,13.90
2017,10,03,07,54,14.00
2017,10,03,07,55,14.00
2017,10,03,07,56,14.00
2017,10,03,07,57,14.00
2017,10,03,07,58,14.00
2017,10,03,07,59,15.40
2017,10,03,08,00,16.00
2017,10,03,08,01,16.00
2017,10,03,08,02,16.30
2017,10,03,08,03,18.80
2017,10,03,08,04,21.70
2017,10,03,08,05,22.10
2017,10,03,08,06,19.90
2017,10,03,08,07,19.00
2017,10,03,08,08,19.00
2017,10,03,08,09,19.00
2017,10,03,08,10,19.00
2017,10,03,08,11,19.40
2017,10,03,08,12,22.20
2017,10,03,08,13,25.00
2017,10,03,08,14,25.50
2017,10,03,08,15,28.40
2017,10,03,08,16,27.20
2017,10,03,08,17,23.60
2017,10,03,08,18,23.00
2017,10,03,08,19,26.00
2017,10,03,08,20,32.00
2017,10,03,08,21,31.30
2017,10,03,08,22,30.90
2017,10,03,08,23,32.00
2017,10,03,08,24,36.50
2017,10,03,08,25,34.50
2017,10,03,08,26,26.30
2017,10,03,08,27,25.00
2017,10,03,08,28,25.00
2017,10,03,08,29,26.50
2017,10,03,08,30,36.30
2017,10,03,08,31,45.70
2017,10,03,08,32,34.40
2017,10,03,08,33,29.40
2017,10,03,08,34,39.60
2017,10,03,08,35,60.00
2017,10,03,08,36,79.90
2017,10,03,08,37,63.70
2017,10,03,08,38,36.50
2017,10,03,08,39,25.60
2017,10,03,08,40,26.50
2017,10,03,08,41,35.20
2017,10,03,08,42,50.30
2017,10,03,08,43,50.00
2017,10,03,08,44,49.30
2017,10,03,08,45,55.70
2017,10,03,08,46,55.50
2017,10,03,08,47,57.90
2017,10,03,08,48,47.20
2017,10,03,08,49,40.70
2017,10,03,08,50,43.30
2017,10,03,08,51,45.50
2017,10,03,08,52,58.50
2017,10,03,08,53,66.30
2017,10,03,08,54,66.60
2017,10,03,08,55,77.80
2017,10,03,08,56,57.10
2017,10,03,08,57,36.00
2017,10,03,08,58,45.40
2017,10,03,08,59,76.90
2017,10,03,09,00,100.80
2017,10,03,09,01,98.60
2017,10,03,09,02,84.60
2017,10,03,09,03,69.00
2017,10,03,09,04,56.10
2017,10,03,09,05,47.90
2017,10,03,09,06,52.70
2017,10,03,09,07,72.20
2017,10,03,09,08,91.50
2017,10,03,09,09,97.60
2017,10,03,09,10,96.60
2017,10,03,09,11,132.60
2017,10,03,09,12,171.00
2017,10,03,09,13,169.60
2017,10,03,09,14,148.10
2017,10,03,09,15,87.20
2017,10,03,09,16,66.80
2017,10,03,09,17,102.00
2017,10,03,09,18,143.60
2017,10,03,09,19,148.70
2017,10,03,09,20,168.60
2017,10,03,09,21,232.60
2017,10,03,09,22,255.80
2017,10,03,09,23,257.50
2017,10,03,09,24,259.30
2017,10,03,09,25,263.00
2017,10,03,09,26,264.90
2017,10,03,09,27,267.00
2017,10,03,09,28,269.30
2017,10,03,09,29,271.20
2017,10,03,09,30,273.40
2017,10,03,09,31,276.80
2017,10,03,09,32,278.50
2017,10,03,09,33,280.30
2017,10,03,09,34,284.00
2017,10,03,09,35,286.80
2017,10,03,09,36,289.90
2017,10,03,09,37,292.40
2017,10,03,09,38,294.80
2017,10,03,09,39,298.50
2017,10,03,09,40,301.50
2017,10,03,09,41,304.40
2017,10,03,09,42,308.10
2017,10,03,09,43,310.60
2017,10,03,09,44,312.80
2017,10,03,09,45,316.40
2017,10,03,09,46,320.60
2017,10,03,09,47,323.60
2017,10,03,09,48,325.80
2017,10,03,09,49,328.60
2017,10,03,09,50,332.60
2017,10,03,09,51,335.50
2017,10,03,09,52,338.40
2017,10,03,09,53,341.10
2017,10,03,09,54,345.10
2017,10,03,09,55,347.10
2017,10,03,09,56,351.10
2017,10,03,09,57,353.90
2017,10,03,09,58,357.20
2017,10,03,09,59,359.70
2017,10,03,10,00,361.60
2017,10,03,10,01,365.40
2017,10,03,10,02,367.20
2017,10,03,10,03,369.80
2017,10,03,10,04,373.30
2017,10,03,10,05,374.80
2017,10,03,10,06,378.00
2017,10,03,10,07,380.60
2017,10,03,10,08,382.40
2017,10,03,10,09,386.20
2017,10,03,10,10,387.10
2017,10,03,10,11,390.60
2017,10,03,10,12,394.40
2017,10,03,10,13,396.40
2017,10,03,10,14,398.70
2017,10,03,10,15,402.10
2017,10,03,10,16,403.60
2017,10,03,10,17,406.90
2017,10,03,10,18,409.70
2017,10,03,10,19,411.10
2017,10,03,10,20,413.40
2017,10,03,10,21,415.60
2017,10,03,10,22,418.20
2017,10,03,10,23,420.90
2017,10,03,10,24,423.10
2017,10,03,10,25,424.70
2017,10,03,10,26,426.60
2017,10,03,10,27,428.80
2017,10,03,10,28,431.30
2017,10,03,10,29,434.50
2017,10,03,10,30,436.60
2017,10,03,10,31,438.40
2017,10,03,10,32,439.00
2017,10,03,10,33,441.50
2017,10,03,10,34,445.10
2017,10,03,10,35,447.70
2017,10,03,10,36,449.90
2017,10,03,10,37,452.30
2017,10,03,10,38,454.20
2017,10,03,10,39,455.70
2017,10,03,10,40,457.90
2017,10,03,10,41,460.20
2017,10,03,10,42,463.00
2017,10,03,10,43,464.00
2017,10,03,10,44,467.60
2017,10,03,10,45,469.20
2017,10,03,10,46,471.30
2017,10,03,10,47,473.60
2017,10,03,10,48,475.40
2017,10,03,10,49,477.00
2017,10,03,10,50,479.20
2017,10,03,10,51,481.40
2017,10,03,10,52,482.80
2017,10,03,10,53,483.20
2017,10,03,10,54,487.30
2017,10,03,10,55,489.00
2017,10,03,10,56,489.30
2017,10,03,10,57,490.90
2017,10,03,10,58,493.10
2017,10,03,10,59,495.30
2017,10,03,11,00,496.80
2017,10,03,11,01,498.80
2017,10,03,11,02,501.10
2017,10,03,11,03,503.20
2017,10,03,11,04,504.00
2017,10,03,11,05,504.80
2017,10,03,11,06,507.00
2017,10,03,11,07,511.00
2017,10,03,11,08,512.30
2017,10,03,11,09,512.80
2017,10,03,11,10,514.80
2017,10,03,11,11,515.40
2017,10,03,11,12,519.20
2017,10,03,11,13,520.70
2017,10,03,11,14,522.00
2017,10,03,11,15,522.00
2017,10,03,11,16,524.50
2017,10,03,11,17,526.00
2017,10,03,11,18,526.80
2017,10,03,11,19,527.10
2017,10,03,11,20,529.30
2017,10,03,11,21,531.00
2017,10,03,11,22,532.00
2017,10,03,11,23,534.00
2017,10,03,11,24,534.00
2017,10,03,11,25,535.40
2017,10,03,11,26,539.20
2017,10,03,11,27,540.90
2017,10,03,11,28,542.90
2017,10,03,11,29,543.00
2017,10,03,11,30,544.20
2017,10,03,11,31,547.40
2017,10,03,11,32,548.00
2017,10,03,11,33,549.20
2017,10,03,11,34,550.00
2017,10,03,11,35,551.70
2017,10,03,11,36,553.90
2017,10,03,11,37,555.30
2017,10,03,11,38,557.00
2017,10,03,11,39,557.00
2017,10,03,11,40,557.90
2017,10,03,11,41,560.10
2017,10,03,11,42,561.00
2017,10,03,11,43,561.00
2017,10,03,11,44,562.70
2017,10,03,11,45,564.00
2017,10,03,11,46,564.00
2017,10,03,11,47,564.60
2017,10,03,11,48,566.80
2017,10,03,11,49,568.00
2017,10,03,11,50,568.00
2017,10,03,11,51,569.40
2017,10,03,11,52,570.80
2017,10,03,11,53,572.80
2017,10,03,11,54,573.30
2017,10,03,11,55,575.50
2017,10,03,11,56,576.30
2017,10,03,11,57,575.90
2017,10,03,11,58,577.50
2017,10,03,11,59,578.00
2017,10,03,12,00,579.40
2017,10,03,12,01,580.00
2017,10,03,12,02,580.10
2017,10,03,12,03,582.30
2017,10,03,12,04,583.40
2017,10,03,12,05,582.70
2017,10,03,12,06,584.50
2017,10,03,12,07,585.00
2017,10,03,12,08,586.30
2017,10,03,12,09,587.00
2017,10,03,12,10,590.60
2017,10,03,12,11,589.20
2017,10,03,12,12,592.00
2017,10,03,12,13,592.00
2017,10,03,12,14,592.00
2017,10,03,12,15,592.00
2017,10,03,12,16,593.30
2017,10,03,12,17,594.00
2017,10,03,12,18,595.60
2017,10,03,12,19,594.40
2017,10,03,12,20,597.70
2017,10,03,12,21,596.40
2017,10,03,12,22,598.00
2017,10,03,12,23,598.00
2017,10,03,12,24,598.00
2017,10,03,12,25,599.90
2017,10,03,12,26,601.00
2017,10,03,12,27,602.80
2017,10,03,12,28,603.00
2017,10,03,12,29,603.00
2017,10,03,12,30,603.50
2017,10,03,12,31,605.00
2017,10,03,12,32,604.00
2017,10,03,12,33,604.80
2017,10,03,12,34,606.00
2017,10,03,12,35,606.00
2017,10,03,12,36,606.00
2017,10,03,12,37,608.00
2017,10,03,12,38,608.40
2017,10,03,12,39,609.30
2017,10,03,12,40,608.80
2017,10,03,12,41,609.00
2017,10,03,12,42,609.30
2017,10,03,12,43,611.50
2017,10,03,12,44,610.30
2017,10,03,12,45,611.90
2017,10,03,12,46,612.00
2017,10,03,12,47,612.00
2017,10,03,12,48,612.00
2017,10,03,12,49,612.00
2017,10,03,12,50,612.00
2017,10,03,12,51,612.70
2017,10,03,12,52,612.20
2017,10,03,12,53,612.00
2017,10,03,12,54,613.00
2017,10,03,12,55,613.00
2017,10,03,12,56,613.60
2017,10,03,12,57,615.00
2017,10,03,12,58,614.00
2017,10,03,12,59,614.20
2017,10,03,13,00,613.50
2017,10,03,13,01,614.60
2017,10,03,13,02,615.00
2017,10,03,13,03,615.00
2017,10,03,13,04,615.00
2017,10,03,13,05,614.30
2017,10,03,13,06,613.80
2017,10,03,13,07,615.00
2017,10,03,13,08,615.00
2017,10,03,13,09,615.00
2017,10,03,13,10,613.30
2017,10,03,13,11,613.00
2017,10,03,13,12,612.20
2017,10,03,13,13,613.50
2017,10,03,13,14,614.20
2017,10,03,13,15,613.00
2017,10,03,13,16,613.00
2017,10,03,13,17,613.00
2017,10,03,13,18,614.60
2017,10,03,13,19,613.20
2017,10,03,13,20,613.00
2017,10,03,13,21,613.00
2017,10,03,13,22,613.00
2017,10,03,13,23,612.60
2017,10,03,13,24,612.00
2017,10,03,13,25,612.00
2017,10,03,13,26,612.00
2017,10,03,13,27,610.30
2017,10,03,13,28,611.80
2017,10,03,13,29,610.00
2017,10,03,13,30,610.00
2017,10,03,13,31,610.00
2017,10,03,13,32,610.00
2017,10,03,13,33,610.00
2017,10,03,13,34,608.60
2017,10,03,13,35,608.00
2017,10,03,13,36,608.00
2017,10,03,13,37,606.00
2017,10,03,13,38,606.00
2017,10,03,13,39,606.00
2017,10,03,13,40,605.60
2017,10,03,13,41,603.90
2017,10,03,13,42,603.00
2017,10,03,13,43,603.00
2017,10,03,13,44,603.00
2017,10,03,13,45,603.00
2017,10,03,13,46,602.80
2017,10,03,13,47,601.00
2017,10,03,13,48,601.00
2017,10,03,13,49,600.10
2017,10,03,13,50,599.00
2017,10,03,13,51,599.00
2017,10,03,13,52,598.20
2017,10,03,13,53,598.00
2017,10,03,13,54,598.00
2017,10,03,13,55,597.60
2017,10,03,13,56,596.00
2017,10,03,13,57,595.30
2017,10,03,13,58,594.00
2017,10,03,13,59,592.80
2017,10,03,14,00,593.40
2017,10,03,14,01,592.40
2017,10,03,14,02,592.00
2017,10,03,14,03,591.90
2017,10,03,14,04,591.00
2017,10,03,14,05,590.40
2017,10,03,14,06,588.20
2017,10,03,14,07,587.00
2017,10,03,14,08,587.00
2017,10,03,14,09,585.60
2017,10,03,14,10,584.20
2017,10,03,14,11,584.00
2017,10,03,14,12,584.00
2017,10,03,14,13,583.50
2017,10,03,14,14,582.00
2017,10,03,14,15,582.00
2017,10,03,14,16,580.80
2017,10,03,14,17,580.00
2017,10,03,14,18,578.50
2017,10,03,14,19,578.00
2017,10,03,14,20,577.00
2017,10,03,14,21,576.60
2017,10,03,14,22,575.00
2017,10,03,14,23,574.10
2017,10,03,14,24,572.00
2017,10,03,14,25,571.00
2017,10,03,14,26,571.00
2017,10,03,14,27,570.20
2017,10,03,14,28,569.90
2017,10,03,14,29,567.70
2017,10,03,14,30,566.00
2017,10,03,14,31,565.30
2017,10,03,14,32,563.60
2017,10,03,14,33,563.00
2017,10,03,14,34,561.80
2017,10,03,14,35,561.00
2017,10,03,14,36,561.00
2017,10,03,14,37,557.40
2017,10,03,14,38,558.70
2017,10,03,14,39,556.40
2017,10,03,14,40,554.60
2017,10,03,14,41,554.00
2017,10,03,14,42,552.80
2017,10,03,14,43,550.60
2017,10,03,14,44,550.00
2017,10,03,14,45,548.20
2017,10,03,14,46,546.70
2017,10,03,14,47,545.00
2017,10,03,14,48,544.40
2017,10,03,14,49,542.20
2017,10,03,14,50,541.00
2017,10,03,14,51,540.40
2017,10,03,14,52,538.50
2017,10,03,14,53,536.30
2017,10,03,14,54,534.10
2017,10,03,14,55,533.90
2017,10,03,14,56,532.40
2017,10,03,14,57,530.20
2017,10,03,14,58,529.00
2017,10,03,14,59,527.90
2017,10,03,15,00,527.00
2017,10,03,15,01,526.20
2017,10,03,15,02,524.20
2017,10,03,15,03,522.00
2017,10,03,15,04,521.60
2017,10,03,15,05,519.70
2017,10,03,15,06,518.20
2017,10,03,15,07,516.00
2017,10,03,15,08,513.80
2017,10,03,15,09,512.30
2017,10,03,15,10,510.40
2017,10,03,15,11,509.80
2017,10,03,15,12,506.00
2017,10,03,15,13,505.60
2017,10,03,15,14,503.60
2017,10,03,15,15,502.10
2017,10,03,15,16,499.90
2017,10,03,15,17,497.80
2017,10,03,15,18,497.00
2017,10,03,15,19,494.50
2017,10,03,15,20,491.90
2017,10,03,15,21,490.00
2017,10,03,15,22,489.20
2017,10,03,15,23,487.00
2017,10,03,15,24,486.00
2017,10,03,15,25,483.80
2017,10,03,15,26,482.30
2017,10,03,15,27,480.40
2017,10,03,15,28,478.20
2017,10,03,15,29,475.90
2017,10,03,15,30,474.50
2017,10,03,15,31,472.30
2017,10,03,15,32,470.10
2017,10,03,15,33,468.50
2017,10,03,15,34,466.70
2017,10,03,15,35,464.60
2017,10,03,15,36,462.30
2017,10,03,15,37,460.90
2017,10,03,15,38,459.00
2017,10,03,15,39,457.90
2017,10,03,15,40,454.60
2017,10,03,15,41,453.10
2017,10,03,15,42,450.80
2017,10,03,15,43,448.70
2017,10,03,15,44,446.40
2017,10,03,15,45,445.10
2017,10,03,15,46,442.80
2017,10,03,15,47,440.60
2017,10,03,15,48,438.70
2017,10,03,15,49,437.20
2017,10,03,15,50,435.00
2017,10,03,15,51,432.70
2017,10,03,15,52,431.30
2017,10,03,15,53,427.80
2017,10,03,15,54,427.00
2017,10,03,15,55,426.50
2017,10,03,15,56,423.50
2017,10,03,15,57,420.60
2017,10,03,15,58,417.50
2017,10,03,15,59,414.80
2017,10,03,16,00,413.00
2017,10,03,16,01,411.50
2017,10,03,16,02,408.50
2017,10,03,16,03,405.90
2017,10,03,16,04,403.80
2017,10,03,16,05,402.50
2017,10,03,16,06,400.30
2017,10,03,16,07,397.60
2017,10,03,16,08,394.80
2017,10,03,16,09,392.60
2017,10,03,16,10,390.40
2017,10,03,16,11,388.20
2017,10,03,16,12,385.00
2017,10,03,16,13,384.00
2017,10,03,16,14,380.60
2017,10,03,16,15,379.10
2017,10,03,16,16,376.90
2017,10,03,16,17,374.10
2017,10,03,16,18,371.60
2017,10,03,16,19,369.30
2017,10,03,16,20,367.00
2017,10,03,16,21,363.70
2017,10,03,16,22,361.50
2017,10,03,16,23,359.60
2017,10,03,16,24,358.00
2017,10,03,16,25,354.60
2017,10,03,16,26,352.30
2017,10,03,16,27,350.40
2017,10,03,16,28,346.40
2017,10,03,16,29,344.80
2017,10,03,16,30,342.60
2017,10,03,16,31,340.10
2017,10,03,16,32,337.20
2017,10,03,16,33,335.00
2017,10,03,16,34,331.50
2017,10,03,16,35,329.30
2017,10,03,16,36,327.30
2017,10,03,16,37,325.00
2017,10,03,16,38,322.70
2017,10,03,16,39,319.50
2017,10,03,16,40,317.30
2017,10,03,16,41,315.60
2017,10,03,16,42,312.80
2017,10,03,16,43,309.70
2017,10,03,16,44,306.80
2017,10,03,16,45,304.20
2017,10,03,16,46,302.00
2017,10,03,16,47,299.00
2017,10,03,16,48,297.80
2017,10,03,16,49,293.80
2017,10,03,16,50,291.00
2017,10,03,16,51,288.80
2017,10,03,16,52,287.30
2017,10,03,16,53,283.80
2017,10,03,16,54,281.20
2017,10,03,16,55,278.50
2017,10,03,16,56,275.60
2017,10,03,16,57,273.10
2017,10,03,16,58,270.10
2017,10,03,16,59,267.90
2017,10,03,17,00,265.00
2017,10,03,17,01,262.50
2017,10,03,17,02,258.60
2017,10,03,17,03,256.90
2017,10,03,17,04,252.70
2017,10,03,17,05,250.10
2017,10,03,17,06,247.20
2017,10,03,17,07,244.60
2017,10,03,17,08,241.90
2017,10,03,17,09,238.20
2017,10,03,17,10,218.60
2017,10,03,17,11,188.10
2017,10,03,17,12,185.50
2017,10,03,17,13,191.60
2017,10,03,17,14,204.00
2017,10,03,17,15,214.80
2017,10,03,17,16,214.50
2017,10,03,17,17,210.50
2017,10,03,17,18,194.30